Погода в Лахти

Финляндия     60°58′40″N   25°39′35″E
темп.,
°C
ветер,
м/с
пор.,
м/с
влажн.,
%
обл.,
%
осадки,
мм/ч
давл.,
гПа
погр.,
м
28 ноября, вс
вс2823:00−7ссв31191100 0.0 1007429
02:00−7ссв41190100 0.0 1006478
05:00−7св41283100 0.0 1005495
08:00−7ссв41174100 0.0 1005483
11:00−7св41083100 0.0 1006482
14:00−6св41082100 0.0 1007590
17:00−7св31084100 0.0 1007541
20:00−6св31084100 0.0 1008621
29 ноября, пн
пн2923:00−6всв3979100 0.0 1009575
02:00−7св388910 0.0 1010281
05:00−7всв311915 0.0 1010420
08:00−7всв3119057 0.0 1010502
11:00−7всв41084100 0.0 1009664
14:00−7св4984100 0.0 1007664
17:00−7св41087100 0.0 1005660
20:00−7св41184100 0.1 1001671
30 ноября, вт
вт3023:00−7ссв51186100 0.0 998612
02:00−8ссв51184100 0.1 994512
05:00−7ссв41092100 0.3 991621
08:00−7с41090100 0.8 989679
11:00−7с41085100 0.1 987747
14:00−7с4108599 0.1 985698
17:00−7ссз41086100 0.1 986831
20:00−7сз41087100 0.2 985835
1 декабря, ср
ср123:00−8сз51087100 0.1 985755
02:00−8сз41187100 0.2 986657
05:00−8сз51188100 0.1 987698
08:00−8сз51283100 0.1 988810
11:00−7зсз41088100 0.1 9891036
14:00−6зсз4981100 0.1 990874
17:00−8зсз398965 0.0 991485
20:00−10зсз289426 0.0 991260
2 декабря, чт
чт223:00−11з129763 0.0 99138
02:00−12з119861 0.0 99019
05:00−11ссз119698 0.0 98915
08:00−11ссв1295100 0.0 98961
11:00−9св2688100 0.0 989215
14:00−9ссв3787100 0.0 989272
17:00−9ссв2791100 0.0 990241
20:00−9с2791100 0.0 992222